Stündliche Wetter Bolshie Izori

Heute, 26 November, Donnerstag

Zeit Temperatur Niederschläge Wind Luftdruck Luftfeuchtigkeit
00:00 +1°C° 0.5 mm 3 m/S 751 mmHg 94%
01:00 +1°C° 0.5 mm 3 m/S 751 mmHg 95%
02:00 +2°C° 0.5 mm 3 m/S 751 mmHg 96%
03:00 +2°C° 0.6 mm 3 m/S 750 mmHg 96%
04:00 +2°C° 0.6 mm 3 m/S 750 mmHg 97%
05:00 +4°C° 0.6 mm 2 m/S 749 mmHg 98%
06:00 +4°C° 0.1 mm 2 m/S 749 mmHg 97%
07:00 +5°C° 0.1 mm 2 m/S 749 mmHg 97%
08:00 +5°C° 0.1 mm 2 m/S 749 mmHg 96%
09:00 +4°C° 0 mm 3 m/S 749 mmHg 94%
10:00 +4°C° 0 mm 3 m/S 748 mmHg 91%
11:00 +5°C° 0 mm 3 m/S 748 mmHg 89%
12:00 +4°C° 0 mm 3 m/S 748 mmHg 86%
13:00 +4°C° 0 mm 3 m/S 748 mmHg 84%
14:00 +4°C° 0 mm 3 m/S 748 mmHg 81%
15:00 +4°C° 0 mm 3 m/S 747 mmHg 82%
16:00 +3°C° 0 mm 3 m/S 747 mmHg 83%
17:00 +3°C° 0 mm 3 m/S 747 mmHg 84%
18:00 +2°C° 0 mm 3 m/S 746 mmHg 84%
19:00 +2°C° 0 mm 3 m/S 746 mmHg 84%
20:00 +1°C° 0 mm 3 m/S 746 mmHg 85%
21:00 0°C° 0 mm 4 m/S 745 mmHg 85%
22:00 0°C° 0 mm 4 m/S 745 mmHg 85%
23:00 0°C° 0 mm 4 m/S 744 mmHg 85%

Morgen, 27 November, Freitag

Zeit Temperatur Niederschläge Wind Luftdruck Luftfeuchtigkeit
00:00 0°C° 0 mm 4 m/S 744 mmHg 87%
01:00 0°C° 0 mm 4 m/S 744 mmHg 88%
02:00 +1°C° 0 mm 3 m/S 744 mmHg 89%
03:00 +1°C° 0.5 mm 3 m/S 743 mmHg 91%
04:00 +1°C° 0.5 mm 3 m/S 743 mmHg 92%
05:00 +1°C° 0.5 mm 3 m/S 742 mmHg 94%
06:00 +1°C° 0.8 mm 3 m/S 742 mmHg 95%
07:00 +2°C° 0.8 mm 3 m/S 742 mmHg 96%
08:00 +3°C° 0.8 mm 2 m/S 742 mmHg 96%
09:00 +3°C° 0.9 mm 2 m/S 742 mmHg 97%
10:00 +3°C° 0.9 mm 2 m/S 742 mmHg 97%
11:00 +3°C° 0.9 mm 2 m/S 742 mmHg 97%
12:00 +3°C° 0.7 mm 2 m/S 742 mmHg 95%
13:00 +1°C° 0.7 mm 3 m/S 743 mmHg 93%
14:00 +1°C° 0.7 mm 3 m/S 743 mmHg 92%
15:00 0°C° 0.2 mm 3 m/S 743 mmHg 90%
16:00 0°C° 0.2 mm 3 m/S 743 mmHg 89%
17:00 0°C° 0.2 mm 3 m/S 744 mmHg 88%
18:00 -1°C° 0.1 mm 3 m/S 744 mmHg 90%
19:00 -1°C° 0.1 mm 3 m/S 745 mmHg 92%
20:00 -1°C° 0.1 mm 2 m/S 745 mmHg 95%
21:00 -1°C° 0.6 mm 3 m/S 746 mmHg 95%
22:00 -1°C° 0.6 mm 3 m/S 746 mmHg 96%
23:00 -1°C° 0.6 mm 3 m/S 747 mmHg 97%

übermorgen, 28 November, Samstag

Zeit Temperatur Niederschläge Wind Luftdruck Luftfeuchtigkeit
00:00 0°C° 0.3 mm 3 m/S 747 mmHg 97%
01:00 0°C° 0.3 mm 3 m/S 748 mmHg 96%
02:00 0°C° 0.3 mm 3 m/S 748 mmHg 96%
03:00 0°C° 0.1 mm 3 m/S 748 mmHg 96%
04:00 0°C° 0.1 mm 3 m/S 749 mmHg 96%
05:00 +2°C° 0.1 mm 2 m/S 749 mmHg 96%
06:00 +2°C° 0.1 mm 2 m/S 749 mmHg 97%
07:00 +2°C° 0.1 mm 2 m/S 750 mmHg 97%
08:00 +2°C° 0.1 mm 2 m/S 750 mmHg 97%
09:00 +2°C° 0.1 mm 2 m/S 751 mmHg 97%
10:00 +2°C° 0.1 mm 2 m/S 751 mmHg 97%
11:00 +2°C° 0.1 mm 2 m/S 752 mmHg 97%
12:00 +2°C° 0.1 mm 2 m/S 752 mmHg 96%
13:00 +2°C° 0.1 mm 2 m/S 753 mmHg 96%
14:00 +2°C° 0.1 mm 2 m/S 753 mmHg 96%
15:00 +2°C° 0.1 mm 2 m/S 753 mmHg 96%
16:00 +2°C° 0.1 mm 2 m/S 754 mmHg 96%
17:00 +2°C° 0.1 mm 2 m/S 754 mmHg 95%
18:00 +1°C° 0.1 mm 2 m/S 755 mmHg 95%
19:00 +1°C° 0.1 mm 2 m/S 755 mmHg 95%
20:00 +1°C° 0.1 mm 2 m/S 755 mmHg 95%
21:00 +1°C° 0.1 mm 2 m/S 756 mmHg 95%
22:00 +1°C° 0.1 mm 2 m/S 756 mmHg 95%
23:00 -1°C° 0.1 mm 2 m/S 757 mmHg 95%

29 November, Sonntag

Zeit Temperatur Niederschläge Wind Luftdruck Luftfeuchtigkeit
00:00 -1°C° 0.1 mm 2 m/S 757 mmHg 96%
01:00 -1°C° 0.1 mm 2 m/S 757 mmHg 96%
02:00 +1°C° 0.1 mm 1 m/S 757 mmHg 96%
03:00 +1°C° 0 mm 1 m/S 757 mmHg 96%
04:00 +1°C° 0 mm 1 m/S 758 mmHg 96%
05:00 +1°C° 0 mm 1 m/S 758 mmHg 96%
06:00 0°C° 0 mm 1 m/S 758 mmHg 96%
07:00 0°C° 0 mm 1 m/S 758 mmHg 96%
08:00 0°C° 0 mm 1 m/S 758 mmHg 96%
09:00 -2°C° 0 mm 2 m/S 758 mmHg 92%
10:00 -1°C° 0 mm 2 m/S 759 mmHg 88%
11:00 -1°C° 0 mm 2 m/S 759 mmHg 84%
12:00 -1°C° 0 mm 2 m/S 758 mmHg 83%
13:00 +1°C° 0 mm 2 m/S 758 mmHg 81%
14:00 +1°C° 0 mm 2 m/S 758 mmHg 80%
15:00 -1°C° 0 mm 2 m/S 758 mmHg 83%
16:00 -1°C° 0 mm 3 m/S 757 mmHg 85%
17:00 -2°C° 0 mm 3 m/S 757 mmHg 88%
18:00 -1°C° 0 mm 3 m/S 757 mmHg 88%
19:00 0°C° 0 mm 3 m/S 757 mmHg 89%
20:00 0°C° 0 mm 3 m/S 757 mmHg 89%
21:00 +1°C° 0 mm 3 m/S 756 mmHg 90%
22:00 +1°C° 0 mm 3 m/S 756 mmHg 90%
23:00 +1°C° 0 mm 3 m/S 756 mmHg 91%

30 November, Montag

Zeit Temperatur Niederschläge Wind Luftdruck Luftfeuchtigkeit
00:00 +1°C° 0 mm 3 m/S 756 mmHg 93%
01:00 +1°C° 0 mm 3 m/S 755 mmHg 95%
02:00 +1°C° 0 mm 3 m/S 754 mmHg 97%
03:00 +1°C° 0.1 mm 3 m/S 754 mmHg 96%
04:00 +2°C° 0.1 mm 3 m/S 754 mmHg 96%
05:00 +2°C° 0.1 mm 3 m/S 753 mmHg 95%
06:00 +2°C° 0.2 mm 3 m/S 753 mmHg 96%
07:00 +2°C° 0.2 mm 3 m/S 753 mmHg 96%
08:00 +2°C° 0.2 mm 3 m/S 753 mmHg 96%
09:00 +3°C° 0.3 mm 2 m/S 753 mmHg 95%
10:00 +3°C° 0.3 mm 2 m/S 753 mmHg 94%
11:00 +3°C° 0.3 mm 2 m/S 753 mmHg 93%
12:00 +2°C° 0.1 mm 2 m/S 752 mmHg 91%
13:00 +2°C° 0.1 mm 2 m/S 752 mmHg 90%
14:00 0°C° 0.1 mm 3 m/S 752 mmHg 88%
15:00 +1°C° 0.1 mm 2 m/S 752 mmHg 90%
16:00 -1°C° 0.1 mm 2 m/S 752 mmHg 91%
17:00 -1°C° 0.1 mm 2 m/S 752 mmHg 93%
18:00 -1°C° 0.1 mm 3 m/S 753 mmHg 93%
19:00 -2°C° 0.1 mm 3 m/S 753 mmHg 93%
20:00 -2°C° 0.1 mm 3 m/S 753 mmHg 94%
21:00 -1°C° 0.2 mm 3 m/S 753 mmHg 95%
22:00 -1°C° 0.2 mm 3 m/S 754 mmHg 95%
23:00 -1°C° 0.2 mm 3 m/S 754 mmHg 96%

1 Dezember, Dienstag

Zeit Temperatur Niederschläge Wind Luftdruck Luftfeuchtigkeit
00:00 -1°C° 0.1 mm 3 m/S 754 mmHg 94%
01:00 -1°C° 0.1 mm 3 m/S 755 mmHg 92%
02:00 -2°C° 0.1 mm 4 m/S 755 mmHg 90%
03:00 -1°C° 0 mm 3 m/S 755 mmHg 88%
04:00 -1°C° 0 mm 3 m/S 755 mmHg 86%
05:00 -2°C° 0 mm 3 m/S 756 mmHg 85%
06:00 -2°C° 0 mm 3 m/S 756 mmHg 85%
07:00 -2°C° 0 mm 3 m/S 756 mmHg 85%
08:00 -4°C° 0 mm 3 m/S 756 mmHg 86%
09:00 -2°C° 0 mm 3 m/S 756 mmHg 84%
10:00 -3°C° 0 mm 4 m/S 756 mmHg 81%
11:00 -3°C° 0 mm 4 m/S 757 mmHg 79%
12:00 -3°C° 0 mm 4 m/S 756 mmHg 80%
13:00 -3°C° 0 mm 4 m/S 756 mmHg 82%
14:00 -3°C° 0 mm 4 m/S 756 mmHg 83%
15:00 -3°C° 0 mm 4 m/S 756 mmHg 83%
16:00 -3°C° 0 mm 4 m/S 756 mmHg 84%
17:00 -3°C° 0 mm 4 m/S 756 mmHg 85%
18:00 -4°C° 0.1 mm 5 m/S 755 mmHg 87%
19:00 -4°C° 0.1 mm 5 m/S 755 mmHg 89%
20:00 -2°C° 0.1 mm 5 m/S 755 mmHg 91%
21:00 -2°C° 0 mm 5 m/S 755 mmHg 90%
22:00 -2°C° 0 mm 5 m/S 755 mmHg 89%
23:00 -2°C° 0 mm 4 m/S 755 mmHg 88%
Mehr zeigen

Wir brauchen deine Erlaubnis

Meteoprog und unser Service Anbieter werden persönliche Daten aufbewahren, so wie Cookies, Geräte Bezeichnung oder ähnliche Technologien von deinem Gerät und Prozess, so wie Persönliche Daten Inhalte und Werbungen, genauso wie social Media und den Verkehr zu analysieren.

  • Aufbewahrung und/oder Zugang zu deiner Geräte Informationen.

    Cookies, Geräte Bezeichnung oder andere Informationen, können aufbewahrt oder Zugang zu deinem Gerät erhalten, für den Grund, der oben angegeben wird.

  • Personalisierte Werbung und Inhalte, Messungen, Einblick in das Publikum und Produkt Entwicklung.

    Werbungen und Inhalte können personalisiert werden, basierend auf ein Profil. Mehr Daten können besser personalisierte Werbungen und Inhalte hinzufügen. Werbung und Inhalte können gezeigt und gemessen werden. Einblicke über das Publikum, welche die Werbung gesehen haben und den Inhalt, können abgeleitet werden. So wie Daten können genutzt werden, um es zu verbessern oder die Benutzer Erfahrung zu verbessern das System und die Software.

Wenn du “Ich stimme zu” klickst, erlaubst du uns, die Cookies zu benutzen die Geräte Bezeichnung, den Web oder ähnliche Technologien zu benutzen. Deine Settings, können in deinem Gerät bei deinem Browser geändert werden.

Für den bestimmten Zweck, berechtigten Interessen beruhen darauf, mehr als auf den Inhalt. Du kannst mehr darüber in unseren Privaten und Cookie Politik lesen.